Overview Statistics Trail Chart Weather Telemetry Raw packets
 

This is the latest recevied weather packets stored in our database for station/object KO4DYK. If no packets are shown the sender has not sent any weather packets the latest 10 day(s).

<< 66 67 68 69 70 71 72 >>
Time Temp. Humidity Pressure Rain* Wind** Luminosity Snow
1788195035 35° C 58% 1021.6 hPa 0 mm - 128 W/m² -
1788194730 34.44° C 58% 1021.7 hPa 0 mm - 732 W/m² -
1788194440 33.89° C 59% 1021.4 hPa 0 mm - 729 W/m² -
1788194120 35.56° C 56% 1021.6 hPa 0 mm - 231 W/m² -
1788193815 35.56° C 56% 1021.6 hPa 0 mm - 769 W/m² -
1788193514 34.44° C 60% 1021.6 hPa 0 mm - 736 W/m² -
1788193212 33.89° C 61% 1021.6 hPa 0 mm - 688 W/m² -
1788192910 33.33° C 62% 1021.7 hPa 0 mm - 669 W/m² -
1788192605 34.44° C 60% 1021.6 hPa 0 mm - 696 W/m² -
1788192304 33.89° C 61% 1021.6 hPa 0 mm - 665 W/m² -
1788192013 33.33° C 63% 1021.5 hPa 0 mm - 672 W/m² -
1788191700 34.44° C 62% 1021.7 hPa 0 mm - 484 W/m² -
1788191395 33.33° C 61% 1021.8 hPa 0 mm - 703 W/m² -
1788191092 33.33° C 63% 1021.5 hPa 0 mm - 638 W/m² -
1788190790 33.89° C 63% 1021.7 hPa 0 mm - 604 W/m² -
1788190486 33.33° C 63% 1021.7 hPa 0 mm - 690 W/m² -
1788190182 33.33° C 64% 1021.7 hPa 0 mm - 599 W/m² -
1788189877 32.78° C 66% 1021.7 hPa 0 mm - 571 W/m² -
1788189573 32.78° C 66% 1021.4 hPa 0 mm - 584 W/m² -
1788189272 32.78° C 67% 1021.6 hPa 0 mm - 584 W/m² -
1788188968 33.33° C 65% 1021.5 hPa 0 mm - 531 W/m² -
1788188672 32.22° C 67% 1021.4 hPa 0 mm - 511 W/m² -
1788188362 32.22° C 68% 1021.4 hPa 0 mm - 497 W/m² -
1788188058 32.22° C 69% 1021.5 hPa 0 mm - 486 W/m² -
1788187754 32.22° C 70% 1021.2 hPa 0 mm - 489 W/m² -

* Rain latest hour (hover to see other rain measurements)
** Current wind speed in m/s (hover to see current wind gust speed)